Location: Carrières
(48.9495°N, 2.0407°E)
Time: 10:53:03
(UTC+00:00)

Tiros 1 - All Passes

Search period start: 17 April 2024 00:00
Search period end: 27 April 2024 00:00
Orbit: 625 x 657 km, 48.4° (Epoch: 16 April)

Date Brightness Start Highest point End Pass type
(mag) Time Alt. Az. Time Alt. Az. Time Alt. Az.
17 Apr - 00:38:21 10° SSW 00:41:52 22° SE 00:45:23 10° E visible
17 Apr - 02:18:49 10° WSW 02:23:21 60° SSE 02:27:54 10° E visible
17 Apr - 04:00:43 10° W 04:05:21 85° S 04:09:58 10° E visible
17 Apr - 05:42:48 10° W 05:47:17 55° SSW 05:51:47 10° SE daylight
17 Apr - 07:25:31 10° W 07:28:42 19° SW 07:31:53 10° S daylight
18 Apr - 01:01:26 10° SW 01:05:40 36° SSE 01:09:55 10° E visible
18 Apr - 02:42:50 10° WSW 02:47:27 78° S 02:52:03 10° E visible
18 Apr - 04:24:53 10° W 04:29:30 77° S 04:34:05 10° ESE daylight
18 Apr - 06:07:03 10° W 06:11:14 35° SSW 06:15:25 10° SE daylight
18 Apr - 23:44:53 10° S 23:48:12 20° SE 23:51:30 10° E visible
19 Apr - 01:25:06 10° WSW 01:29:38 56° SSE 01:34:09 10° E visible
19 Apr - 03:06:58 10° W 03:11:36 85° S 03:16:12 10° E visible
19 Apr - 04:49:02 10° W 04:53:34 59° SSW 04:58:05 10° ESE daylight
19 Apr - 06:31:37 10° W 06:35:02 21° SW 06:38:26 10° S daylight
20 Apr - 00:07:48 10° SSW 00:11:58 33° SSE 00:16:08 10° E visible
20 Apr - 01:49:04 10° WSW 01:53:42 75° S 01:58:18 10° E visible
20 Apr - 03:31:07 10° W 03:35:44 80° S 03:40:20 10° ESE visible
20 Apr - 05:13:15 10° W 05:17:32 38° SSW 05:21:48 10° SE daylight
20 Apr - 06:57:35 10° WSW 06:58:39 11° SW 06:59:44 10° SSW daylight
20 Apr - 22:51:27 10° S 22:54:31 18° SE 22:57:34 10° E night (unlit)
21 Apr - 00:31:23 10° SW 00:35:54 52° SSE 00:40:23 10° E visible
21 Apr - 02:13:11 10° W 02:17:50 85° S 02:22:27 10° E visible
21 Apr - 03:55:16 10° W 03:59:49 63° SSW 04:04:22 10° ESE visible
21 Apr - 05:37:43 10° W 05:41:21 23° SW 05:44:57 10° SSE daylight
21 Apr - 23:14:11 10° SSW 23:18:15 30° SSE 23:22:19 10° E visible
22 Apr - 00:55:18 10° WSW 00:59:56 72° SSE 01:04:32 10° E visible
22 Apr - 02:37:20 10° W 02:41:58 82° S 02:46:35 10° E visible
22 Apr - 04:19:27 10° W 04:23:48 42° SSW 04:28:07 10° SE daylight
22 Apr - 06:03:07 10° WSW 06:05:00 12° SW 06:06:52 10° SSW daylight
22 Apr - 21:58:04 10° S 22:00:49 16° SE 22:03:34 10° ESE night (unlit)
22 Apr - 23:37:39 10° SW 23:42:09 48° SSE 23:46:36 10° E visible
23 Apr - 01:19:24 10° W 01:24:03 84° S 01:28:40 10° E visible
23 Apr - 03:01:28 10° W 03:06:04 66° SSW 03:10:37 10° ESE visible
23 Apr - 04:43:51 10° W 04:47:38 26° SW 04:51:25 10° SSE daylight
23 Apr - 22:20:34 10° SSW 22:24:32 28° SE 22:28:28 10° E night (unlit)
24 Apr - 00:01:32 10° WSW 00:06:09 69° SSE 00:10:45 10° E visible
24 Apr - 01:43:32 10° W 01:48:11 83° S 01:52:48 10° E visible
24 Apr - 03:25:39 10° W 03:30:03 46° SSW 03:34:27 10° SE visible
24 Apr - 05:08:54 10° WSW 05:11:19 14° SW 05:13:42 10° S daylight
24 Apr - 21:04:44 10° SSE 21:07:08 14° SE 21:09:30 10° ESE night (unlit)
24 Apr - 22:43:56 10° SW 22:48:23 45° SSE 22:52:48 10° E night (unlit)
25 Apr - 00:25:35 10° W 00:30:15 83° S 00:34:53 10° E visible
25 Apr - 02:07:40 10° W 02:12:17 70° SSW 02:16:52 10° ESE visible
25 Apr - 03:49:58 10° W 03:53:55 28° SSW 03:57:50 10° SSE visible
25 Apr - 21:26:57 10° SSW 21:30:47 25° SE 21:34:36 10° E night (unlit)
25 Apr - 23:07:44 10° WSW 23:12:22 65° SSE 23:16:58 10° E visible
26 Apr - 00:49:43 10° W 00:54:23 84° S 00:59:01 10° E visible
26 Apr - 02:31:49 10° W 02:36:18 50° SSW 02:40:44 10° SE visible
26 Apr - 04:14:49 10° W 04:17:36 16° SW 04:20:23 10° S daylight
26 Apr - 20:11:32 10° SSE 20:13:25 12° SE 20:15:17 10° ESE visible
26 Apr - 21:50:12 10° SW 21:54:37 41° SSE 21:58:59 10° E visible
26 Apr - 23:31:45 10° W 23:36:27 81° S 23:41:05 10° E visible
